Hourly Data Report for October 05, 2014

All times are specified in Local Standard Time (LST). Add 1 hour to adjust for Daylight Saving Time where and when it is observed.

GJOA HAVEN A
NUNAVUT

68°38'08.000" N
95°51'01.000" W
46.90 m
2302337
71597
YHK

Download Data

Hourly Data (October 2014)
Hourly Data Report for October 5, 2014
Temp Definition
°C
Dew Point Temp Definition
°C
Rel Hum Definition
%
Wind Dir Definition
10's deg

Wind Spd Definition
km/h
Visibility Definition
km
Stn Press Definition
kPa
Hmdx Definition


Wind Chill Definition


Weather Definition


TIME
00:00 Legend Double Dagger -5.1 -6.8 88 5 13 16.1 101.60   -10 LegendNANA
01:00 Legend Double Dagger -5.6 -7.2 89 6 26 16.1 101.60   -13 LegendNANA
02:00 Legend Double Dagger -5.5 -7.1 88 6 22 16.1 101.66   -13 LegendNANA
03:00 Legend Double Dagger -5.6 -7.4 87 6 22 16.1 101.70   -13 Snow
04:00 Legend Double Dagger -5.9 -7.7 87 6 21 16.1 101.72   -13 LegendNANA
05:00 Legend Double Dagger -5.8 -7.3 89 6 24 16.1 101.75   -13 LegendNANA
06:00 Legend Double Dagger -5.9 -7.9 86 7 30 16.1 101.73   -14 LegendNANA
07:00 Legend Double Dagger -5.8 -7.5 88 8 34 16.1 101.75   -15 LegendNANA
08:00 Legend Double Dagger -5.8 -7.0 91 6 30 16.1 101.74   -14 LegendNANA
09:00 Legend Double Dagger -5.8 -7.0 91 6 30 16.1 101.74   -14 LegendNANA
10:00 Legend Double Dagger -5.4 -6.5 92 7 28 16.1 101.76   -13 LegendNANA
11:00 Legend Double Dagger -5.1 -6.7 89 8 26 16.1 101.80   -13 LegendNANA
12:00 Legend Double Dagger -5.1 -6.6 89 7 32 16.1 101.82   -13 LegendNANA
13:00 Legend Double Dagger -4.9 -6.5 89 7 37 16.1 101.79   -14 LegendNANA
14:00 Legend Double Dagger -4.6 -5.9 91 7 35 16.1 101.81   -13 LegendNANA
15:00 Legend Double Dagger -5.0 -6.3 91 7 41 16.1 101.80   -14 LegendNANA
16:00 Legend Double Dagger -5.2 -6.4 91 6 37 12.9 101.82   -14 LegendNANA
17:00 Legend Double Dagger -5.6 -6.6 93 7 37 11.3 101.80   -15 LegendNANA
18:00 Legend Double Dagger -5.9 -6.9 93 6 41 9.7 101.78   -15 Fog
19:00 Legend Double Dagger -5.8 -6.8 93 6 39 11.3 101.74   -15 LegendNANA
20:00 Legend Double Dagger -5.9 -7.1 92 7 45 9.7 101.79   -16 Fog
21:00 Legend Double Dagger -6.1 -7.3 91 7 46 9.7 101.71   -16 Fog
22:00 Legend Double Dagger -6.0 -7.3 91 7 48 6.4 101.66   -16 Fog
23:00 Legend Double Dagger -6.0 -7.0 93 6 50 4.8 101.61   -16 Fog

Notes on Data Quality.

Legend

  • E = Estimated
  • M = Missing
  • NA = Not Available
  • ‡ = Partner data that is not subject to review by the National Climate Archives
Date modified: